Location: Katowice
(50.2611°N, 19.0242°E)
Time: 20:48:58
(UTC+02:00)

Explorer 7 - Pass Details

Date: 26 August 2019
Orbit: 485 x 680 km, 50.3° (Epoch: 22 September)

Event Time Altitude Azimuth Distance (km) Brightness Sun altitude
Rises 13:28:49 0° 284° (WNW) 2,945 10.6 49.2°
Reaches altitude 10° 13:31:13 10° 281° (W) 2,005 9.9 49.1°
Maximum altitude 13:35:45 60° 202° (SSW) 691 9.7 48.8°
Drops below altitude 10° 13:39:59 10° 122° (ESE) 1,876 9.8 48.6°
Sets 13:42:11 0° 119° (ESE) 2,737 10.5 48.5°
